Precipitable_Water
1.21 1.22 1.29 1.33 1.39 1.38 1.36 1.36 1.36 1.33 1.34 1.38 1.43 1.49 1.51 1.50 1.55 1.61 1.64 1.65 1.65 1.59 1.59 1.58 1.55 1.55 1.51 1.50 1.53 1.55 1.53 1.48 1.38 1.28 1.31 1.33 1.19 1.15 1.25 1.24 1.21 1.20 1.15 1.09 1.07 0.97 0.93 0.91 0.93 1.12 1.22 1.23 1.26 1.28 1.28 1.27 1.26 1.23 1.25 1.29 1.29 1.30 1.28
1.24 1.23 1.27 1.29 1.27 1.31 1.29 1.33 1.32 1.29 1.32 1.41 1.47 1.47 1.50 1.54 1.60 1.65 1.66 1.63 1.59 1.57 1.56 1.58 1.59 1.57 1.54 1.49 1.51 1.51 1.49 1.45 1.42 1.36 1.33 1.28 1.25 1.17 1.20 1.18 1.20 1.16 1.12 1.11 1.10 1.06 0.96 0.88 0.91 0.94 1.00 1.18 1.23 1.23 1.26 1.30 1.28 1.29 1.27 1.25 1.29 1.29 1.25
1.20 1.23 1.25 1.21 1.21 1.24 1.22 1.24 1.27 1.26 1.29 1.35 1.42 1.47 1.50 1.57 1.63 1.61 1.70 1.71 1.65 1.58 1.56 1.57 1.58 1.55 1.52 1.49 1.51 1.51 1.51 1.47 1.49 1.40 1.32 1.29 1.28 1.26 1.25 1.22 1.14 1.12 1.08 1.06 1.05 1.02 1.00 1.01 0.94 0.93 0.98 1.03 0.99 1.11 1.22 1.22 1.24 1.27 1.27 1.27 1.26 1.25 1.21
1.19 1.19 1.16 1.15 1.17 1.19 1.18 1.22 1.24 1.26 1.30 1.32 1.40 1.45 1.49 1.55 1.58 1.57 1.62 1.69 1.65 1.58 1.54 1.53 1.57 1.55 1.52 1.47 1.50 1.52 1.51 1.49 1.43 1.40 1.39 1.30 1.30 1.27 1.28 1.23 1.18 1.13 1.06 1.00 0.99 1.00 0.97 0.93 0.92 0.94 0.97 1.00 0.98 1.01 1.15 1.21 1.21 1.23 1.23 1.27 1.23 1.22 1.22
1.17 1.16 1.12 1.10 1.13 1.14 1.18 1.19 1.26 1.29 1.30 1.34 1.37 1.38 1.40 1.45 1.48 1.53 1.57 1.58 1.57 1.56 1.51 1.56 1.62 1.58 1.56 1.51 1.46 1.45 1.47 1.48 1.45 1.41 1.33 1.27 1.24 1.28 1.32 1.29 1.24 1.21 1.15 1.07 1.09 1.06 1.02 0.99 0.96 0.94 0.93 0.97 0.98 1.03 1.13 1.16 1.20 1.18 1.17 1.21 1.24 1.24 1.24
1.16 1.15 1.12 1.10 1.14 1.14 1.20 1.21 1.23 1.25 1.31 1.30 1.32 1.30 1.31 1.38 1.45 1.48 1.50 1.50 1.49 1.50 1.50 1.53 1.54 1.54 1.56 1.53 1.47 1.43 1.48 1.46 1.41 1.36 1.33 1.28 1.30 1.22 1.29 1.33 1.26 1.20 1.15 1.16 1.14 1.09 1.09 1.08 1.02 0.95 0.98 1.00 0.91 0.98 1.06 1.07 1.06 1.16 1.20 1.20 1.23 1.24 1.22
1.15 1.16 1.16 1.14 1.15 1.17 1.20 1.22 1.26 1.28 1.29 1.29 1.29 1.29 1.33 1.37 1.40 1.47 1.50 1.51 1.52 1.52 1.52 1.55 1.58 1.56 1.54 1.50 1.46 1.46 1.44 1.47 1.44 1.35 1.31 1.32 1.32 1.27 1.31 1.26 1.19 1.18 1.18 1.18 1.15 1.14 1.09 1.05 1.01 0.97 0.97 0.97 0.97 0.93 1.00 0.99 1.06 1.03 1.11 1.21 1.24 1.23 1.22
1.21 1.20 1.19 1.19 1.19 1.20 1.21 1.22 1.25 1.31 1.31 1.30 1.27 1.30 1.35 1.37 1.40 1.44 1.47 1.48 1.49 1.51 1.54 1.55 1.58 1.59 1.54 1.51 1.49 1.50 1.51 1.50 1.43 1.38 1.35 1.31 1.30 1.29 1.27 1.22 1.22 1.18 1.20 1.24 1.17 1.14 1.14 1.10 1.05 1.02 0.99 0.89 0.87 0.93 0.92 0.96 0.99 0.99 1.05 1.13 1.22 1.22 1.20
1.23 1.22 1.21 1.22 1.25 1.26 1.25 1.23 1.27 1.32 1.33 1.36 1.37 1.34 1.32 1.33 1.37 1.44 1.48 1.48 1.51 1.51 1.51 1.53 1.55 1.55 1.53 1.50 1.52 1.52 1.48 1.50 1.41 1.37 1.35 1.28 1.29 1.30 1.27 1.25 1.24 1.18 1.20 1.19 1.20 1.18 1.16 1.16 1.09 1.11 1.05 0.95 0.84 0.79 0.88 0.87 0.91 0.93 1.06 1.03 1.14 1.19 1.19
1.18 1.17 1.17 1.21 1.25 1.28 1.29 1.28 1.28 1.32 1.37 1.37 1.36 1.37 1.33 1.35 1.38 1.43 1.46 1.48 1.49 1.51 1.51 1.51 1.51 1.50 1.50 1.48 1.46 1.46 1.48 1.46 1.40 1.33 1.34 1.28 1.26 1.30 1.29 1.28 1.23 1.22 1.24 1.30 1.27 1.23 1.20 1.18 1.16 1.15 1.11 1.01 0.96 0.86 0.81 0.79 0.84 0.88 0.97 1.07 1.02 1.10 1.19
1.17 1.18 1.18 1.19 1.26 1.30 1.29 1.30 1.30 1.30 1.33 1.34 1.34 1.35 1.34 1.33 1.34 1.37 1.43 1.47 1.49 1.50 1.50 1.50 1.49 1.48 1.46 1.43 1.45 1.46 1.50 1.49 1.41 1.38 1.38 1.34 1.26 1.29 1.29 1.30 1.25 1.19 1.29 1.28 1.28 1.31 1.26 1.24 1.19 1.16 1.13 1.10 1.06 0.93 0.89 0.80 0.83 0.95 0.96 1.06 1.08 1.06 1.14
1.15 1.18 1.21 1.23 1.25 1.26 1.27 1.30 1.29 1.30 1.32 1.33 1.32 1.33 1.34 1.32 1.32 1.33 1.38 1.43 1.48 1.49 1.50 1.48 1.48 1.47 1.47 1.44 1.45 1.44 1.45 1.45 1.42 1.38 1.40 1.33 1.31 1.29 1.26 1.21 1.22 1.24 1.24 1.29 1.30 1.24 1.21 1.26 1.21 1.16 1.14 1.13 1.08 1.01 0.97 0.89 0.85 0.98 1.02 0.99 1.06 1.13 1.12
1.12 1.13 1.18 1.21 1.24 1.26 1.29 1.30 1.30 1.29 1.29 1.32 1.31 1.33 1.34 1.33 1.33 1.32 1.36 1.40 1.42 1.47 1.48 1.49 1.47 1.46 1.46 1.44 1.44 1.43 1.43 1.42 1.40 1.34 1.30 1.35 1.30 1.29 1.25 1.22 1.24 1.23 1.26 1.32 1.31 1.26 1.23 1.23 1.23 1.15 1.13 1.11 1.08 1.06 1.02 0.96 0.85 0.97 1.12 1.07 1.06 1.13 1.15
1.06 1.11 1.14 1.18 1.22 1.27 1.30 1.33 1.32 1.31 1.32 1.30 1.32 1.31 1.32 1.33 1.34 1.35 1.35 1.38 1.41 1.43 1.45 1.46 1.48 1.46 1.42 1.38 1.40 1.41 1.42 1.42 1.38 1.35 1.35 1.30 1.31 1.28 1.23 1.22 1.24 1.26 1.31 1.25 1.29 1.28 1.22 1.18 1.16 1.14 1.12 1.11 1.08 1.08 1.01 0.96 0.88 0.94 1.04 1.14 1.11 1.11 1.15
0.99 1.03 1.07 1.12 1.16 1.22 1.27 1.30 1.34 1.35 1.31 1.33 1.35 1.34 1.33 1.35 1.36 1.37 1.35 1.36 1.40 1.44 1.44 1.45 1.46 1.45 1.40 1.37 1.37 1.39 1.39 1.39 1.35 1.35 1.33 1.30 1.28 1.28 1.26 1.23 1.24 1.30 1.30 1.23 1.23 1.23 1.19 1.14 1.11 1.09 1.08 1.09 1.07 1.06 1.07 0.99 0.93 0.90 0.95 1.01 1.02 1.13 1.12
0.91 0.95 0.99 1.05 1.09 1.15 1.21 1.26 1.30 1.32 1.33 1.33 1.37 1.37 1.38 1.38 1.37 1.38 1.38 1.37 1.39 1.41 1.43 1.42 1.45 1.44 1.43 1.40 1.36 1.36 1.36 1.36 1.34 1.29 1.26 1.29 1.26 1.26 1.22 1.21 1.25 1.26 1.23 1.15 1.28 1.21 1.15 1.12 1.14 1.11 1.10 1.12 1.08 1.08 1.09 1.04 0.98 0.92 0.96 0.97 1.01 1.01 1.06
0.85 0.88 0.91 0.97 1.02 1.10 1.18 1.24 1.28 1.30 1.32 1.34 1.32 1.38 1.41 1.40 1.39 1.39 1.39 1.38 1.38 1.38 1.39 1.39 1.40 1.41 1.40 1.38 1.36 1.34 1.34 1.33 1.32 1.30 1.26 1.28 1.28 1.22 1.20 1.24 1.25 1.24 1.15 1.18 1.23 1.16 1.15 1.15 1.15 1.14 1.11 1.13 1.11 1.09 1.10 1.08 1.01 0.98 0.98 0.92 0.95 0.95 1.01
0.78 0.80 0.83 0.89 0.94 1.01 1.09 1.19 1.28 1.30 1.32 1.32 1.36 1.39 1.40 1.40 1.37 1.38 1.36 1.36 1.36 1.35 1.36 1.36 1.35 1.36 1.39 1.40 1.38 1.36 1.35 1.34 1.32 1.28 1.22 1.20 1.29 1.27 1.27 1.25 1.28 1.19 1.19 1.13 1.14 1.13 1.14 1.15 1.15 1.14 1.11 1.12 1.11 1.11 1.11 1.07 1.03 1.01 0.99 0.95 0.95 0.97 1.03
0.74 0.76 0.80 0.83 0.87 0.92 0.99 1.06 1.16 1.25 1.29 1.31 1.36 1.38 1.37 1.37 1.36 1.33 1.37 1.34 1.39 1.33 1.34 1.35 1.33 1.35 1.36 1.38 1.37 1.36 1.37 1.36 1.34 1.28 1.23 1.18 1.33 1.29 1.27 1.19 1.20 1.19 1.18 1.14 1.12 1.14 1.16 1.15 1.15 1.13 1.12 1.11 1.12 1.12 1.11 1.09 1.05 1.03 0.99 1.00 0.98 0.91 0.94
0.73 0.74 0.77 0.81 0.84 0.87 0.91 0.97 1.04 1.12 1.23 1.30 1.33 1.33 1.35 1.36 1.37 1.36 1.36 1.36 1.34 1.31 1.34 1.33 1.34 1.34 1.35 1.35 1.34 1.32 1.34 1.36 1.33 1.31 1.22 1.22 1.31 1.25 1.22 1.16 1.16 1.16 1.22 1.21 1.14 1.14 1.15 1.15 1.15 1.14 1.14 1.12 1.12 1.10 1.09 1.08 1.04 1.02 1.00 0.99 0.97 0.94 0.86
0.72 0.72 0.75 0.78 0.81 0.84 0.87 0.90 0.95 1.04 1.12 1.18 1.24 1.29 1.31 1.32 1.35 1.35 1.36 1.35 1.36 1.37 1.38 1.35 1.34 1.32 1.34 1.34 1.32 1.32 1.34 1.31 1.31 1.30 1.24 1.27 1.30 1.21 1.18 1.26 1.28 1.31 1.26 1.21 1.18 1.20 1.18 1.17 1.18 1.15 1.15 1.12 1.10 1.07 1.06 1.06 1.02 0.99 0.99 0.96 0.93 0.92 0.88
0.73 0.72 0.72 0.73 0.76 0.80 0.83 0.86 0.90 0.94 1.00 1.08 1.15 1.23 1.29 1.32 1.31 1.31 1.33 1.35 1.35 1.36 1.37 1.36 1.37 1.33 1.33 1.32 1.34 1.32 1.31 1.33 1.29 1.24 1.25 1.28 1.26 1.17 1.16 1.15 1.15 1.20 1.29 1.28 1.27 1.23 1.24 1.25 1.23 1.12 1.15 1.12 1.08 1.08 1.06 1.03 1.00 0.97 0.97 0.96 0.95 0.96 0.90
0.70 0.71 0.70 0.69 0.70 0.74 0.78 0.81 0.85 0.87 0.91 0.97 1.05 1.14 1.19 1.25 1.28 1.29 1.30 1.32 1.34 1.31 1.32 1.33 1.40 1.35 1.34 1.32 1.30 1.31 1.32 1.31 1.27 1.23 1.24 1.19 1.17 1.17 1.18 1.16 1.15 1.21 1.26 1.34 1.33 1.29 1.23 1.18 1.15 1.24 1.26 1.21 1.14 1.10 1.07 1.06 1.02 0.98 0.93 0.91 0.95 0.96 0.94
0.69 0.68 0.68 0.68 0.68 0.68 0.70 0.74 0.78 0.82 0.86 0.90 0.95 1.01 1.10 1.16 1.22 1.27 1.29 1.29 1.30 1.31 1.30 1.36 1.35 1.35 1.36 1.34 1.30 1.28 1.30 1.30 1.26 1.24 1.18 1.17 1.14 1.15 1.18 1.19 1.22 1.26 1.30 1.28 1.29 1.27 1.21 1.17 1.18 1.21 1.22 1.21 1.22 1.22 1.13 1.06 1.05 1.02 1.00 0.95 1.00 1.03 1.00
0.67 0.66 0.67 0.67 0.67 0.67 0.68 0.69 0.71 0.74 0.78 0.82 0.88 0.94 0.98 1.04 1.14 1.22 1.24 1.26 1.28 1.30 1.29 1.30 1.34 1.36 1.38 1.34 1.29 1.30 1.35 1.28 1.26 1.22 1.21 1.20 1.19 1.19 1.17 1.18 1.22 1.29 1.29 1.28 1.27 1.25 1.23 1.22 1.18 1.18 1.17 1.17 1.15 1.14 1.16 1.14 1.08 1.06 1.03 1.08 0.99 1.02 1.03
0.66 0.66 0.66 0.66 0.67 0.67 0.66 0.66 0.67 0.69 0.72 0.77 0.81 0.84 0.89 0.95 1.02 1.12 1.19 1.22 1.23 1.27 1.31 1.35 1.31 1.32 1.36 1.34 1.29 1.30 1.32 1.32 1.28 1.22 1.20 1.18 1.21 1.22 1.18 1.16 1.19 1.24 1.26 1.26 1.25 1.25 1.24 1.20 1.18 1.17 1.17 1.16 1.16 1.15 1.11 1.11 1.15 1.15 1.17 1.10 1.02 0.99 0.97
0.65 0.66 0.66 0.66 0.66 0.65 0.65 0.64 0.65 0.67 0.69 0.72 0.74 0.77 0.82 0.87 0.94 1.00 1.08 1.16 1.22 1.26 1.27 1.29 1.32 1.29 1.28 1.30 1.30 1.30 1.32 1.33 1.30 1.23 1.21 1.18 1.19 1.20 1.20 1.18 1.15 1.14 1.18 1.22 1.22 1.23 1.21 1.16 1.12 1.10 1.09 1.10 1.09 1.09 1.10 1.13 1.12 1.11 1.12 1.12 1.12 1.01 1.04
0.65 0.65 0.66 0.66 0.65 0.65 0.65 0.65 0.65 0.66 0.67 0.67 0.70 0.72 0.75 0.80 0.86 0.93 0.99 1.07 1.15 1.20 1.22 1.24 1.26 1.29 1.27 1.27 1.32 1.33 1.34 1.28 1.27 1.22 1.20 1.20 1.21 1.23 1.23 1.21 1.18 1.16 1.15 1.15 1.18 1.16 1.10 1.07 1.06 1.06 1.06 1.06 1.04 1.02 1.04 1.05 1.08 1.12 1.13 1.16 1.16 1.12 1.11
0.66 0.66 0.66 0.65 0.65 0.64 0.65 0.65 0.65 0.67 0.67 0.67 0.69 0.71 0.74 0.77 0.81 0.86 0.93 0.99 1.05 1.10 1.17 1.19 1.21 1.23 1.25 1.26 1.29 1.34 1.33 1.29 1.21 1.20 1.18 1.20 1.22 1.22 1.22 1.24 1.22 1.21 1.20 1.15 1.10 1.06 1.05 1.05 1.02 0.99 0.97 0.96 0.94 0.98 1.01 1.03 1.08 1.12 1.14 1.14 1.15 1.15 1.15
0.66 0.66 0.66 0.65 0.64 0.64 0.65 0.65 0.67 0.69 0.67 0.67 0.67 0.68 0.69 0.72 0.77 0.81 0.87 0.93 0.98 1.04 1.09 1.14 1.17 1.20 1.22 1.27 1.29 1.32 1.32 1.32 1.25 1.17 1.13 1.15 1.17 1.18 1.20 1.26 1.28 1.19 1.16 1.10 1.03 1.00 0.99 0.99 0.95 0.93 0.91 0.89 0.90 0.90 0.92 0.98 1.03 1.07 1.09 1.10 1.10 1.16 1.15
0.65 0.65 0.65 0.64 0.63 0.64 0.66 0.67 0.67 0.69 0.67 0.67 0.67 0.67 0.69 0.71 0.74 0.78 0.82 0.88 0.94 0.98 1.04 1.11 1.15 1.18 1.22 1.25 1.29 1.29 1.27 1.27 1.22 1.14 1.10 1.13 1.13 1.11 1.11 1.20 1.25 1.19 1.15 1.08 1.03 0.99 0.99 0.98 0.91 0.88 0.86 0.84 0.85 0.83 0.85 0.91 0.94 0.97 1.00 1.02 1.04 1.05 1.06
0.65 0.64 0.64 0.64 0.65 0.65 0.66 0.66 0.68 0.69 0.69 0.69 0.68 0.70 0.70 0.70 0.73 0.77 0.81 0.86 0.92 0.96 1.01 1.08 1.12 1.15 1.19 1.24 1.28 1.27 1.25 1.24 1.16 1.11 1.09 1.08 1.07 1.06 1.06 1.11 1.15 1.15 1.09 1.07 1.03 0.99 0.97 0.95 0.90 0.89 0.91 0.90 0.86 0.84 0.86 0.88 0.87 0.88 0.89 0.89 0.89 0.91 0.92
0.65 0.64 0.64 0.65 0.66 0.67 0.69 0.69 0.69 0.68 0.68 0.69 0.69 0.69 0.70 0.71 0.71 0.75 0.80 0.84 0.89 0.93 0.98 1.04 1.08 1.10 1.16 1.21 1.23 1.24 1.20 1.18 1.11 1.10 1.07 1.04 0.98 0.99 1.02 1.08 1.12 1.09 1.05 1.03 1.00 0.97 0.96 0.95 0.91 0.92 0.96 0.93 0.88 0.85 0.89 0.89 0.89 0.88 0.86 0.85 0.84 0.84 0.86
0.62 0.64 0.66 0.65 0.66 0.67 0.67 0.68 0.71 0.71 0.70 0.70 0.69 0.69 0.70 0.71 0.72 0.74 0.78 0.82 0.86 0.91 0.95 0.99 1.05 1.06 1.11 1.17 1.19 1.19 1.17 1.16 1.12 1.08 1.06 1.02 1.00 0.98 1.00 1.05 1.11 1.10 1.03 0.98 0.97 0.97 0.98 0.98 0.93 0.94 0.97 0.95 0.95 0.97 0.99 0.94 0.92 0.92 0.89 0.86 0.86 0.87 0.86
0.59 0.61 0.62 0.63 0.63 0.64 0.67 0.68 0.68 0.69 0.72 0.72 0.70 0.69 0.69 0.70 0.71 0.73 0.76 0.80 0.84 0.88 0.92 0.96 1.00 1.03 1.07 1.13 1.16 1.15 1.08 1.06 1.09 1.07 1.06 1.04 1.02 1.01 1.03 1.10 1.08 1.07 1.04 1.00 1.01 1.02 1.02 1.00 0.98 0.96 0.97 1.01 1.03 1.01 0.98 0.98 0.97 0.95 0.93 0.90 0.90 0.89 0.88
0.56 0.57 0.58 0.59 0.59 0.59 0.63 0.65 0.66 0.66 0.67 0.69 0.71 0.70 0.70 0.71 0.71 0.72 0.74 0.77 0.81 0.85 0.89 0.97 1.00 1.01 1.07 1.14 1.14 1.12 1.09 1.08 1.11 1.09 1.00 0.97 0.98 1.00 1.07 1.09 1.07 1.06 1.06 1.06 1.06 1.06 1.05 1.05 1.04 1.00 1.02 1.04 1.04 1.03 1.01 0.99 0.98 0.96 0.92 0.91 0.90 0.88 0.85
0.54 0.55 0.55 0.55 0.55 0.56 0.57 0.61 0.64 0.64 0.64 0.65 0.67 0.69 0.71 0.72 0.72 0.72 0.72 0.74 0.77 0.81 0.86 0.90 0.95 0.98 1.04 1.09 1.09 1.07 1.07 1.06 1.05 1.05 1.05 1.00 1.00 1.03 1.03 1.06 1.08 1.06 1.05 1.06 1.07 1.07 1.07 1.07 1.05 1.04 1.02 1.00 0.99 0.99 0.98 0.96 0.94 0.94 0.92 0.89 0.86 0.84 0.82
Wind_Speed
19 20 20 20 21 22 22 23 23 24 25 25 25 25 25 26 26 26 27 27 27 26 25 23 23 23 22 21 21 21 21 21 21 20 19 18 18 17 17 16 15 14 13 12 12 11 11 11 11 11 11 11 11 11 11 10 9 9 8 7 7 7 6
19 20 20 20 21 22 22 23 23 23 24 24 24 24 24 24 24 25 25 25 26 25 25 24 23 23 22 22 22 22 22 21 21 20 20 19 18 17 16 16 15 14 14 13 13 13 12 12 11 11 11 11 11 12 11 11 10 10 9 8 8 7 7
20 21 21 21 21 22 22 22 23 23 23 23 23 23 22 21 22 22 22 22 23 24 24 24 24 23 22 22 22 23 23 22 21 21 20 19 18 17 17 16 15 15 14 14 14 13 13 13 12 12 12 12 12 12 12 12 11 10 10 9 8 8 8
22 22 22 22 22 22 22 22 22 22 22 21 21 20 19 18 18 18 19 21 21 23 23 23 23 23 22 22 21 22 23 23 22 21 21 20 18 18 17 17 16 15 15 15 14 14 14 13 12 12 12 13 12 12 12 12 12 11 10 10 9 9 8
22 23 23 24 24 23 23 22 21 21 21 20 19 18 18 17 17 17 18 20 21 22 23 23 23 23 23 22 22 23 23 23 22 22 21 20 19 18 18 17 16 16 16 15 15 14 14 14 13 12 12 12 13 12 12 12 12 12 11 10 10 10 9
23 24 24 24 24 24 23 23 22 21 20 20 19 18 18 17 17 17 18 19 19 20 22 23 23 23 23 23 23 23 23 23 23 22 21 21 20 19 19 18 17 17 16 16 15 14 14 14 13 13 12 12 12 12 11 12 12 12 12 11 11 10 10
24 24 24 25 24 24 23 22 22 21 20 20 19 18 18 18 18 18 18 18 19 20 22 23 23 24 24 23 23 23 23 23 23 22 22 21 21 20 19 18 17 17 17 16 16 15 15 14 14 13 13 12 13 12 12 12 13 13 12 12 12 11 11
23 24 25 25 25 24 23 22 21 21 20 20 19 19 18 18 19 19 19 19 20 21 22 23 23 24 24 24 24 23 24 23 23 22 22 22 21 20 20 19 18 18 17 17 16 16 16 15 14 14 13 13 13 13 12 13 14 14 13 13 13 13 13
22 23 24 25 24 24 23 22 22 21 20 19 19 19 19 19 18 19 19 20 20 21 22 23 24 24 24 24 24 23 23 24 23 23 23 22 22 21 20 19 19 18 18 18 17 17 16 16 15 15 14 14 13 13 13 13 14 14 14 14 13 14 14
21 22 23 24 24 23 22 22 22 22 21 20 19 19 19 19 19 19 20 21 21 21 22 23 24 25 25 24 24 23 23 24 24 24 23 23 22 21 20 20 20 19 19 18 18 18 17 16 16 15 15 15 14 14 14 14 14 14 15 15 14 14 15
20 20 21 22 22 21 21 22 22 22 21 20 20 19 19 19 19 19 20 21 21 22 22 23 24 25 25 25 25 25 24 24 25 24 24 24 23 22 21 21 20 20 19 19 19 19 18 17 17 16 15 16 15 15 15 14 14 15 15 15 15 15 15
19 19 19 20 20 20 20 21 21 22 21 20 20 19 19 19 19 20 21 21 21 22 23 24 24 25 25 26 26 25 25 25 25 25 25 24 23 22 21 21 21 20 20 20 20 20 19 18 17 16 16 16 16 16 16 15 15 15 15 15 15 15 15
19 19 19 19 18 19 20 21 21 21 21 21 21 20 19 19 19 19 20 21 22 22 23 24 24 25 25 26 26 26 25 25 25 25 25 25 24 23 22 22 22 21 21 20 20 20 19 19 18 17 17 17 17 17 17 16 15 14 14 15 15 15 15
19 19 20 20 19 18 19 20 21 21 21 21 21 21 20 20 20 20 20 21 22 22 23 24 25 25 25 26 26 26 26 26 26 26 25 25 25 23 23 23 23 22 22 21 20 20 19 19 19 18 18 17 17 17 17 17 16 15 14 15 15 15 15
19 20 20 20 20 19 19 19 19 21 21 21 22 22 21 21 20 20 20 21 22 22 22 23 24 25 25 25 26 26 27 27 27 26 26 25 25 24 23 23 23 23 22 22 21 20 19 19 19 19 19 18 18 18 18 18 17 16 16 15 15 15 15
18 19 19 20 20 20 20 19 19 20 21 22 22 23 22 22 22 21 21 21 22 23 23 24 24 24 25 26 26 26 27 27 27 26 26 26 25 25 24 24 24 23 22 22 22 21 20 20 20 19 19 19 19 19 19 18 18 17 16 16 16 16 16
18 18 18 19 19 20 20 19 19 20 21 22 23 23 23 22 22 22 22 22 23 24 24 24 24 25 25 26 27 27 27 28 28 27 27 27 26 25 25 24 24 23 23 23 22 21 21 20 20 20 20 20 20 19 19 19 19 18 17 17 17 17 17
17 18 18 18 18 19 19 19 19 20 21 21 22 22 23 23 22 22 22 22 23 24 25 25 25 26 26 26 27 27 28 28 28 28 28 27 26 25 25 24 24 23 23 23 23 22 22 21 21 21 21 20 20 20 19 19 19 19 18 18 17 17 17
18 18 18 18 18 18 18 18 19 19 20 20 20 21 22 23 23 23 23 23 23 24 25 25 26 26 27 27 27 28 28 28 28 29 28 27 26 26 25 25 25 24 24 24 23 23 22 22 22 22 21 21 21 20 20 19 19 19 19 18 17 17 17
18 18 19 18 18 18 17 17 18 18 19 19 19 20 21 22 23 23 23 24 24 24 25 26 26 26 27 28 28 28 28 28 28 29 28 27 27 26 25 25 25 25 24 24 23 23 23 23 22 22 22 22 21 21 20 20 20 20 20 19 19 18 18
18 19 19 19 19 18 17 17 17 17 17 18 18 19 20 21 23 24 24 24 24 24 24 25 26 26 27 28 28 28 28 28 28 28 28 28 27 26 26 25 25 25 25 24 24 23 23 23 23 22 22 22 22 22 21 21 21 21 21 20 20 19 19
19 19 19 19 19 19 18 18 17 17 17 17 18 19 20 21 22 24 25 25 24 24 24 24 25 26 27 27 28 28 28 29 28 28 28 28 28 27 27 27 26 25 24 24 24 23 23 22 22 22 22 22 22 22 22 21 21 21 21 21 21 20 19
19 19 19 19 19 19 19 18 18 18 17 17 18 18 20 21 22 23 25 25 25 25 24 24 25 26 27 27 28 29 29 29 28 28 29 29 28 27 27 27 27 26 25 25 25 24 24 23 23 22 21 20 21 21 21 22 22 22 22 21 21 21 20
19 19 19 19 19 19 19 19 19 18 18 18 18 18 19 20 22 23 24 25 25 26 25 25 25 26 27 28 29 30 30 30 29 29 29 29 28 27 27 27 26 26 26 26 25 24 24 24 24 23 22 21 21 20 21 22 21 21 21 21 20 20 20
20 20 20 20 20 20 20 20 19 19 19 18 19 19 19 20 21 23 24 25 26 26 26 26 26 26 28 29 30 30 31 31 30 29 29 29 28 27 27 27 26 26 26 26 25 25 24 24 24 24 23 23 22 22 22 21 21 21 21 20 19 20 20
21 21 21 21 21 21 21 20 20 20 19 19 19 19 19 19 20 21 23 25 25 26 26 26 26 27 28 29 31 31 31 30 30 29 29 29 28 27 26 26 26 26 25 25 25 25 24 24 23 23 24 23 23 23 23 23 22 22 21 20 20 21 21
21 22 21 21 21 21 21 21 21 20 20 20 20 19 19 20 20 20 21 23 24 25 26 26 27 28 28 29 30 31 32 30 29 29 29 29 28 28 27 27 27 26 26 26 25 25 24 24 24 23 24 24 24 24 24 24 24 23 23 22 21 21 21
22 22 22 22 22 22 22 22 21 21 20 20 19 19 20 20 20 20 21 22 23 24 25 26 27 29 29 29 30 31 31 31 30 29 28 28 29 28 28 28 27 27 26 26 25 24 24 24 24 24 24 24 24 24 24 24 24 24 24 23 22 21 21
22 22 22 22 22 22 22 21 21 21 20 20 19 19 19 19 20 20 21 22 23 24 25 25 27 29 29 29 30 30 31 31 30 29 29 28 29 29 29 28 28 27 27 26 25 25 24 24 23 24 24 24 24 24 24 24 24 23 23 23 22 21 21
22 22 22 22 22 22 22 21 20 20 20 20 20 19 19 19 19 20 21 22 23 24 25 25 27 28 29 29 30 30 31 31 30 29 29 29 29 29 28 28 28 28 27 26 25 25 24 24 24 24 24 23 23 23 23 24 23 23 22 22 22 21 21
21 21 21 21 21 21 20 20 19 19 19 19 19 19 19 19 19 19 20 21 22 23 24 25 26 27 28 29 30 30 30 31 30 29 29 29 30 29 29 28 28 29 28 27 26 25 25 25 24 24 23 23 22 22 23 23 23 22 22 22 21 21 21
20 20 20 20 20 19 19 19 18 18 18 18 18 18 18 18 18 18 19 19 20 22 23 24 25 26 27 28 30 30 30 31 30 29 28 29 30 30 29 28 28 28 28 27 26 26 25 25 24 24 23 23 22 22 22 22 22 22 22 21 21 21 21
20 19 19 20 19 19 18 18 18 18 18 17 17 16 16 16 16 17 18 18 19 20 21 23 24 25 26 27 28 29 29 30 30 28 28 28 29 29 28 28 28 27 27 27 27 26 25 25 25 24 23 22 22 22 22 22 22 21 21 21 21 20 20
20 20 19 19 19 19 18 18 18 18 18 17 16 16 15 14 14 15 15 16 17 17 19 20 22 24 25 26 27 28 29 29 29 28 27 27 28 28 28 28 28 28 27 27 26 26 25 24 24 24 23 23 22 22 22 22 21 21 21 20 20 20 20
20 20 20 20 20 20 19 19 19 18 18 18 17 16 15 15 14 14 14 14 14 14 15 17 19 21 22 24 25 26 27 28 28 27 26 26 26 26 26 27 28 27 27 26 26 26 25 25 24 24 24 23 22 22 22 22 21 21 21 21 21 21 21
20 20 21 21 20 20 20 20 19 19 18 18 17 17 16 16 15 14 14 13 13 12 12 13 14 16 19 22 23 23 23 25 26 26 26 25 26 26 27 28 27 27 26 25 25 25 25 25 25 24 23 23 23 23 22 22 22 21 21 21 21 21 21
21 21 21 21 21 20 20 20 19 19 18 17 17 17 17 16 15 14 13 12 12 11 11 10 10 12 15 19 21 22 22 22 23 24 24 24 25 26 27 27 27 26 25 24 24 24 25 25 24 23 23 22 23 23 23 23 22 22 21 21 22 22 22
Wind_Direction
281 281 282 282 281 280 279 278 278 277 276 275 274 274 272 268 264 259 253 249 243 236 232 231 228 226 226 225 226 225 223 223 224 225 228 227 228 229 231 233 234 236 237 235 236 238 236 236 236 237 238 236 235 236 235 237 239 239 240 239 237 235 236
282 283 283 284 284 284 283 281 279 278 278 277 275 274 273 268 264 260 252 246 240 233 230 229 227 226 225 226 227 225 222 223 225 227 229 228 228 229 229 230 232 234 235 235 236 238 237 238 236 234 234 233 234 236 235 236 238 239 238 238 237 236 234
283 283 284 285 286 286 286 284 280 279 278 277 276 274 272 269 265 258 247 241 237 231 229 227 225 225 225 228 228 223 221 224 226 227 227 226 228 230 228 228 230 232 234 235 235 235 236 238 239 235 231 231 233 235 234 234 236 237 237 236 237 236 234
285 284 283 284 284 285 286 286 283 280 277 275 276 274 271 267 264 256 243 240 237 231 228 226 224 224 224 227 226 221 222 226 226 226 226 226 228 230 229 229 231 232 234 234 235 235 234 236 238 236 231 231 234 235 234 233 234 236 236 237 237 235 233
285 284 283 282 282 283 284 285 285 282 275 272 273 273 270 265 262 255 245 242 239 232 228 226 225 225 225 225 225 224 225 226 225 227 228 228 229 230 229 230 232 233 234 235 235 235 234 235 237 237 233 231 235 236 235 234 235 237 236 237 236 234 233
284 283 282 281 281 281 282 283 283 280 275 270 269 270 268 264 260 255 249 245 240 234 230 228 226 225 225 226 226 227 227 225 225 227 229 229 229 229 229 231 232 234 234 234 234 234 234 234 235 236 233 231 234 236 235 235 236 237 237 238 236 234 234
284 283 282 281 280 280 280 280 278 275 273 270 268 267 266 263 259 255 250 245 240 235 232 231 228 226 226 227 228 229 227 226 225 226 228 228 229 229 230 231 232 233 233 233 233 232 232 233 234 235 232 230 233 235 235 235 236 237 238 238 237 235 236
284 284 282 281 280 279 278 276 274 270 269 269 267 265 264 263 259 254 249 245 240 236 233 231 228 227 228 229 230 230 228 226 226 227 228 229 229 229 230 231 232 232 233 232 232 231 231 232 233 234 232 230 233 235 236 237 237 238 239 238 238 237 237
288 287 284 282 280 278 275 273 270 267 266 268 267 265 263 262 259 254 248 245 241 237 233 231 229 229 230 230 231 231 229 227 227 228 229 230 229 229 230 231 232 232 232 232 231 230 231 232 234 234 233 232 234 236 237 238 239 240 240 239 239 239 238
292 291 288 285 282 277 273 270 267 265 263 265 266 264 262 260 258 255 250 246 243 239 235 233 231 231 231 231 232 232 231 230 230 230 231 231 229 230 231 231 231 231 231 231 231 230 231 233 234 235 235 236 237 237 238 240 241 242 240 239 240 239 237
295 295 292 289 284 278 272 268 265 263 261 262 263 262 261 260 257 255 252 247 244 241 238 235 234 232 232 232 233 234 234 233 231 231 232 231 229 229 231 230 230 231 232 232 231 230 231 233 234 235 236 238 239 241 242 242 243 242 240 239 241 240 236
297 297 295 293 288 280 272 268 265 262 260 259 259 259 260 259 258 255 252 248 244 241 239 237 236 234 232 233 233 234 234 232 231 231 231 231 230 229 230 230 229 230 231 231 229 231 232 232 233 236 238 238 240 243 245 246 246 243 241 241 242 241 237
298 297 297 295 291 283 275 270 266 262 258 258 257 257 258 258 257 255 252 248 244 241 239 238 237 235 233 233 233 233 232 231 231 231 231 231 230 229 229 230 229 229 230 229 230 231 231 231 234 237 238 239 241 243 245 248 247 243 243 244 242 241 238
298 297 296 294 292 287 280 274 268 262 258 256 256 255 256 257 257 256 253 249 244 240 239 238 236 235 235 234 233 233 232 231 232 231 230 229 229 229 230 230 230 229 229 230 231 231 231 232 236 238 239 240 242 243 244 246 246 242 244 245 243 241 239
300 299 297 294 291 288 285 279 272 264 258 255 255 255 256 258 258 256 253 249 244 240 239 238 236 235 235 234 233 233 233 232 231 230 229 228 227 228 230 230 229 229 230 230 229 230 232 234 236 237 238 240 242 243 243 244 245 243 243 243 242 241 239
303 301 299 296 293 290 287 283 276 268 261 256 255 255 255 257 257 255 252 249 244 240 239 237 236 235 234 233 233 233 233 231 230 229 229 228 227 228 230 229 228 228 230 229 228 231 235 236 236 237 239 240 242 243 242 242 243 243 242 240 240 240 238
308 306 303 299 296 293 289 283 277 272 266 259 255 255 255 255 255 253 251 249 244 241 239 237 236 236 235 234 233 233 233 231 229 228 228 229 229 229 228 227 228 228 229 228 229 232 235 236 237 238 239 241 241 242 242 241 242 243 243 240 239 240 239
314 310 307 304 301 297 292 286 278 274 271 264 256 255 255 254 253 251 250 248 245 242 239 238 237 237 236 235 234 234 233 231 229 228 228 229 229 228 226 226 227 228 228 229 231 234 235 235 236 238 239 241 241 241 241 240 240 242 243 241 239 240 239
318 315 311 307 304 301 296 291 283 276 273 267 258 255 255 253 252 250 249 248 246 243 241 239 239 238 237 236 235 234 233 231 230 228 227 228 228 228 227 227 228 230 230 230 232 234 235 236 237 238 239 240 240 241 240 239 239 240 241 241 238 237 238
320 318 314 308 305 303 301 296 290 282 276 270 262 257 256 254 252 250 250 249 248 245 242 241 240 239 237 236 235 234 232 231 229 227 226 226 228 229 229 229 229 230 230 231 233 235 236 236 237 238 238 239 240 241 239 239 239 239 239 240 238 237 237
317 318 316 311 305 303 302 300 296 289 281 274 267 262 259 257 254 251 251 250 249 247 244 242 240 239 237 235 234 233 231 228 227 226 225 226 227 229 229 229 229 230 231 234 235 236 237 238 238 238 238 239 240 240 240 239 238 239 239 238 238 238 237
314 316 317 314 309 304 302 299 297 293 288 281 274 267 262 259 256 253 251 251 250 248 246 243 241 239 236 234 233 231 229 228 227 226 225 226 229 230 230 230 230 231 234 235 235 236 237 238 238 238 239 239 239 240 240 239 239 239 239 239 238 238 237
312 314 316 317 314 309 304 300 297 293 290 286 281 274 268 262 259 255 253 251 250 248 247 246 243 239 236 234 232 230 229 229 228 227 226 228 230 231 231 231 231 232 233 234 235 235 236 236 236 238 239 239 239 240 239 239 240 240 240 240 239 237 237
311 312 314 316 315 313 309 304 299 295 291 287 284 280 274 268 262 258 255 253 251 249 248 247 244 240 237 235 233 232 231 229 228 228 228 229 231 231 230 230 231 232 233 234 235 235 236 236 236 238 240 240 240 239 238 240 242 242 242 243 240 237 238
311 311 312 313 314 313 311 308 304 299 294 290 286 282 278 273 267 261 257 255 253 250 248 247 244 241 238 236 235 234 232 230 229 229 229 229 230 230 230 230 231 232 233 233 234 234 235 236 237 238 239 240 240 239 239 240 241 242 243 245 241 238 238
309 310 311 311 311 312 312 310 308 303 298 294 290 285 281 277 271 265 260 256 254 252 249 247 244 242 239 237 236 234 232 231 230 230 230 229 229 229 229 229 230 231 232 232 232 234 234 235 237 238 239 239 240 240 241 240 241 241 243 245 243 239 239
308 309 310 310 310 311 311 310 309 306 302 298 293 289 285 280 274 270 264 259 256 253 251 248 245 242 240 238 237 234 232 232 230 230 230 229 229 229 229 229 230 231 231 231 231 233 233 235 236 237 238 239 240 241 241 241 242 242 243 245 245 242 243
306 307 309 310 311 312 312 310 309 307 305 301 297 293 288 283 278 273 268 262 258 255 253 250 246 242 239 238 237 234 232 231 230 229 229 229 229 230 230 230 231 230 229 229 230 232 233 235 237 238 238 239 240 241 242 243 244 244 244 245 245 245 245
306 307 308 309 311 312 312 311 309 307 305 304 301 297 293 287 282 277 271 265 260 257 256 253 248 243 239 237 236 233 231 230 229 229 229 229 230 230 230 230 230 228 227 228 230 232 234 236 237 238 238 239 240 242 243 244 244 244 244 244 245 246 246
307 307 308 308 309 310 311 311 309 307 305 303 302 300 297 292 287 281 276 270 264 260 258 255 250 244 239 237 235 232 231 230 229 229 230 230 230 230 230 230 229 228 227 229 231 233 235 236 237 237 238 239 240 241 242 243 243 243 242 243 244 245 246
307 307 307 307 308 309 310 309 308 306 304 302 301 298 296 294 290 286 281 275 269 263 260 257 252 246 240 236 234 232 230 228 227 228 230 231 230 229 229 230 231 229 228 230 231 233 235 236 237 237 237 237 237 238 239 240 240 241 241 241 242 243 244
306 306 306 306 306 307 307 307 306 305 304 303 301 299 296 294 291 288 284 279 274 267 262 257 252 247 241 235 233 231 229 227 227 228 230 230 230 229 228 229 231 230 228 230 232 233 236 237 237 236 236 235 236 237 237 237 238 239 240 241 241 242 242
306 306 307 307 306 305 305 304 304 304 304 304 304 302 301 298 295 291 286 283 278 272 264 257 252 248 242 235 232 230 227 225 226 227 229 230 230 230 228 227 229 229 228 229 232 234 237 238 236 234 235 236 236 236 236 236 237 239 239 240 241 240 241
306 306 307 307 307 306 306 305 305 303 303 304 306 306 307 306 303 298 292 287 282 275 267 258 252 248 240 233 230 229 226 225 227 229 229 230 231 230 228 227 228 229 229 230 232 234 237 237 235 233 234 235 236 235 234 235 236 237 238 239 240 241 242
306 305 305 307 307 307 306 306 306 305 303 303 304 305 306 307 307 306 302 298 292 282 271 261 253 247 238 229 227 227 227 227 229 229 228 229 230 228 226 226 227 228 229 230 232 234 235 235 235 234 233 233 233 233 233 234 235 237 239 240 242 243 243
307 305 304 305 307 307 306 306 306 306 305 303 302 302 302 303 306 308 308 306 303 293 281 267 254 244 234 227 225 226 226 226 227 229 230 231 231 228 225 225 227 228 230 231 232 234 235 235 236 235 232 230 230 232 234 235 237 239 240 241 242 243 244
307 306 305 305 305 306 306 305 304 305 305 304 302 300 299 299 301 304 306 306 304 300 291 274 255 240 230 227 226 224 224 226 229 231 232 232 230 226 224 225 228 229 230 231 232 233 233 234 234 233 231 230 232 235 236 238 238 239 240 241 243 244 246